TimeMST,TemperatureF,Dew PointF,Humidity,Sea Level PressureIn,VisibilityMPH,Wind Direction,Wind SpeedMPH,Gust SpeedMPH,PrecipitationIn,Events,Conditions,WindDirDegrees,DateUTC
12:53 AM,51.1,28.9,43,30.02,10.0,SSE,3.5,-,N/A,,Clear,150,2012-12-03 07:53:00
1:53 AM,50.0,28.9,44,30.02,10.0,SE,6.9,-,N/A,,Clear,130,2012-12-03 08:53:00
2:53 AM,50.0,28.0,43,30.00,10.0,SE,8.1,-,N/A,,Clear,140,2012-12-03 09:53:00
3:53 AM,50.0,27.0,41,30.02,10.0,SE,3.5,-,N/A,,Clear,140,2012-12-03 10:53:00
4:53 AM,48.0,27.0,44,30.04,10.0,Calm,Calm,-,N/A,,Clear,0,2012-12-03 11:53:00
5:53 AM,46.9,27.0,46,30.07,10.0,SSE,4.6,-,N/A,,Clear,150,2012-12-03 12:53:00
6:53 AM,46.9,27.0,46,30.09,10.0,South,6.9,-,N/A,,Clear,170,2012-12-03 13:53:00
7:53 AM,48.2,26.6,43,30.16,10.0,SE,8.1,-,N/A,,Clear,140,2012-12-03 14:53:00
8:53 AM,53.1,28.0,38,30.11,10.0,SSE,4.6,-,N/A,,Clear,160,2012-12-03 15:53:00
9:53 AM,59.0,28.9,32,30.12,10.0,Calm,Calm,-,N/A,,Clear,0,2012-12-03 16:53:00
10:53 AM,66.0,33.1,29,30.11,10.0,Calm,Calm,-,N/A,,Clear,0,2012-12-03 17:53:00
11:53 AM,70.0,36.0,29,30.09,10.0,WNW,3.5,-,N/A,,Clear,290,2012-12-03 18:53:00
12:53 PM,72.0,36.0,27,30.06,10.0,West,3.5,-,N/A,,Clear,280,2012-12-03 19:53:00
1:53 PM,73.0,34.0,24,30.04,10.0,West,10.4,-,N/A,,Clear,280,2012-12-03 20:53:00
2:53 PM,73.9,35.1,24,30.03,10.0,North,6.9,-,N/A,,Clear,350,2012-12-03 21:53:00
3:53 PM,73.9,36.0,25,30.02,10.0,Variable,5.8,-,N/A,,Clear,0,2012-12-03 22:53:00
4:53 PM,72.0,36.0,27,30.03,10.0,Variable,6.9,-,N/A,,Clear,0,2012-12-03 23:53:00
5:53 PM,68.0,37.9,33,30.05,10.0,NNW,5.8,-,N/A,,Clear,340,2012-12-04 00:53:00
6:53 PM,64.9,37.9,37,30.07,10.0,NNW,5.8,-,N/A,,Clear,340,2012-12-04 01:53:00
7:53 PM,61.0,37.9,42,30.10,10.0,South,4.6,-,N/A,,Clear,190,2012-12-04 02:53:00
8:53 PM,59.0,36.0,42,30.12,10.0,SSW,6.9,-,N/A,,Clear,210,2012-12-04 03:53:00
9:53 PM,57.0,37.0,47,30.12,10.0,South,3.5,-,N/A,,Clear,180,2012-12-04 04:53:00
10:53 PM,53.6,33.8,47,30.20,10.0,ESE,4.6,-,N/A,,Clear,120,2012-12-04 05:53:00
11:53 PM,53.1,36.0,52,30.13,10.0,SSE,3.5,-,N/A,,Clear,150,2012-12-04 06:53:00